,,,PA_Meas_PMT16A,,PR_Meas_QMR101_102,,RH_Meas_QMH101,,SR_Meas_QMS101,,TA_Meas_QMH101,,GenWind,,GenWind,
date,time,status,PA,status,PR,status,RH,status,SR,status,TA,status,DirAvg,status,SpdAvg,
2011-04-24, 00:00:05,VALID,1007.92,VALID,0,VALID,103.314,VALID,0,VALID,24.8615,VALID,43,VALID,0,
2011-04-24, 00:01:05,VALID,1007.93,VALID,0,VALID,103.337,VALID,0.105969,VALID,24.8206,VALID,43,VALID,0,
2011-04-24, 00:02:05,VALID,1007.93,VALID,0,VALID,103.337,VALID,0,VALID,24.8225,VALID,43,VALID,0,
2011-04-24, 00:03:05,VALID,1007.93,VALID,0,VALID,103.39,VALID,0.105969,VALID,24.803,VALID,43,VALID,0,
2011-04-24, 00:04:05,VALID,1007.95,VALID,0,VALID,103.428,VALID,0,VALID,24.803,VALID,43,VALID,0,
2011-04-24, 00:05:05,VALID,1007.95,VALID,0,VALID,103.489,VALID,0,VALID,24.803,VALID,43,VALID,0,
2011-04-24, 00:06:05,VALID,1007.95,VALID,0,VALID,103.535,VALID,0.105969,VALID,24.7835,VALID,43,VALID,0,
2011-04-24, 00:07:05,VALID,1007.92,VALID,0,VALID,103.603,VALID,0,VALID,24.764,VALID,43,VALID,0,
2011-04-24, 00:08:05,VALID,1007.95,VALID,0,VALID,103.657,VALID,0,VALID,24.764,VALID,43,VALID,0,
2011-04-24, 00:09:05,VALID,1007.95,VALID,0,VALID,103.695,VALID,0.105969,VALID,24.7445,VALID,43,VALID,0,
2011-04-24, 00:10:05,VALID,1007.9,VALID,0,VALID,103.695,VALID,0,VALID,24.7464,VALID,43,VALID,0,
2011-04-24, 00:11:05,VALID,1007.85,VALID,0,VALID,103.733,VALID,0,VALID,24.7464,VALID,43,VALID,0,
2011-04-24, 00:12:05,VALID,1007.83,VALID,0,VALID,103.756,VALID,0,VALID,24.7269,VALID,43,VALID,0,
2011-04-24, 00:13:05,VALID,1007.82,VALID,0,VALID,103.771,VALID,0,VALID,24.7074,VALID,43,VALID,0,
2011-04-24, 00:14:05,VALID,1007.8,VALID,0,VALID,103.809,VALID,0,VALID,24.7074,VALID,43,VALID,0,
2011-04-24, 00:15:05,VALID,1007.77,VALID,0,VALID,103.832,VALID,0,VALID,24.6879,VALID,43,VALID,0,
2011-04-24, 00:16:05,VALID,1007.74,VALID,0,VALID,103.848,VALID,0,VALID,24.6666,VALID,43,VALID,0,
2011-04-24, 00:17:05,VALID,1007.74,VALID,0,VALID,103.878,VALID,0,VALID,24.6684,VALID,43,VALID,0,
2011-04-24, 00:18:05,VALID,1007.76,VALID,0,VALID,103.916,VALID,0,VALID,24.6471,VALID,43,VALID,0,
2011-04-24, 00:19:05,VALID,1007.76,VALID,0,VALID,103.962,VALID,0,VALID,24.6489,VALID,43,VALID,0,
2011-04-24, 00:20:05,VALID,1007.79,VALID,0,VALID,103.985,VALID,0,VALID,24.6684,VALID,43,VALID,0,
2011-04-24, 00:21:05,VALID,1007.79,VALID,0,VALID,104,VALID,0,VALID,24.6489,VALID,43,VALID,0,
2011-04-24, 00:22:05,VALID,1007.81,VALID,0,VALID,104,VALID,0,VALID,24.6489,VALID,43,VALID,0,
2011-04-24, 00:23:05,VALID,1007.79,VALID,0,VALID,104,VALID,0,VALID,24.6508,VALID,43,VALID,0,
2011-04-24, 00:24:05,VALID,1007.79,VALID,0,VALID,104,VALID,0,VALID,24.6294,VALID,43,VALID,0,
2011-04-24, 00:25:05,VALID,1007.81,VALID,0,VALID,104,VALID,0,VALID,24.6081,VALID,43,VALID,0,
2011-04-24, 00:26:05,VALID,1007.83,VALID,0,VALID,104,VALID,0,VALID,24.6294,VALID,43,VALID,0,
2011-04-24, 00:27:05,VALID,1007.87,VALID,0,VALID,104,VALID,0,VALID,24.6276,VALID,44,VALID,0.254297,
2011-04-24, 00:28:05,VALID,1007.87,VALID,0,VALID,104,VALID,0,VALID,24.6276,VALID,58,VALID,0.658984,
2011-04-24, 00:29:05,VALID,1007.91,VALID,0,VALID,104,VALID,0,VALID,24.6489,VALID,58,VALID,0.207031,
2011-04-24, 00:30:05,VALID,1007.94,VALID,0,VALID,104,VALID,0,VALID,24.6294,VALID,57,VALID,0.532422,
2011-04-24, 00:31:05,VALID,1007.92,VALID,0,VALID,104,VALID,0,VALID,24.6099,VALID,54,VALID,0,
2011-04-24, 00:32:05,VALID,1007.92,VALID,0,VALID,104,VALID,0,VALID,24.6099,VALID,54,VALID,0,
2011-04-24, 00:33:05,VALID,1007.91,VALID,0,VALID,104,VALID,0,VALID,24.6099,VALID,54,VALID,0.00234375,
2011-04-24, 00:34:05,VALID,1007.89,VALID,0,VALID,104,VALID,0,VALID,24.6294,VALID,67,VALID,0.724609,
2011-04-24, 00:35:05,VALID,1007.89,VALID,0,VALID,104,VALID,0,VALID,24.6294,VALID,73,VALID,0.494922,
2011-04-24, 00:36:05,VALID,1007.86,VALID,0,VALID,104,VALID,0,VALID,24.6276,VALID,41,VALID,0.436719,
2011-04-24, 00:37:05,VALID,1007.84,VALID,0,VALID,104,VALID,0,VALID,24.6489,VALID,41,VALID,0.301562,
2011-04-24, 00:38:05,VALID,1007.82,VALID,0,VALID,104,VALID,0,VALID,24.6489,VALID,41,VALID,0.247656,
2011-04-24, 00:39:05,VALID,1007.79,VALID,0,VALID,104,VALID,0,VALID,24.6294,VALID,41,VALID,0.113672,
2011-04-24, 00:40:05,VALID,1007.78,VALID,0,VALID,104,VALID,0,VALID,24.6489,VALID,41,VALID,0.302344,
2011-04-24, 00:41:05,VALID,1007.78,VALID,0,VALID,104,VALID,0,VALID,24.6489,VALID,41,VALID,0.0734375,
2011-04-24, 00:42:05,VALID,1007.75,VALID,0,VALID,104,VALID,0,VALID,24.6294,VALID,41,VALID,0,
2011-04-24, 00:43:05,VALID,1007.76,VALID,0,VALID,104,VALID,0,VALID,24.6489,VALID,41,VALID,0.275781,
2011-04-24, 00:44:05,VALID,1007.76,VALID,0,VALID,104,VALID,0,VALID,24.6508,VALID,41,VALID,0,
2011-04-24, 00:45:05,VALID,1007.75,VALID,0,VALID,104,VALID,0,VALID,24.6099,VALID,41,VALID,0.271484,
2011-04-24, 00:46:05,VALID,1007.78,VALID,0,VALID,104,VALID,0,VALID,24.6294,VALID,41,VALID,0.192578,
2011-04-24, 00:47:05,VALID,1007.75,VALID,0,VALID,104,VALID,0,VALID,24.6099,VALID,41,VALID,0.375,
2011-04-24, 00:48:05,VALID,1007.74,VALID,0,VALID,104,VALID,0,VALID,24.6099,VALID,41,VALID,0.255859,
2011-04-24, 00:49:05,VALID,1007.73,VALID,0,VALID,104,VALID,0,VALID,24.5691,VALID,41,VALID,0.2375,
2011-04-24, 00:50:05,VALID,1007.73,VALID,0,VALID,104,VALID,0,VALID,24.5515,VALID,41,VALID,0,
2011-04-24, 00:51:05,VALID,1007.69,VALID,0,VALID,104,VALID,0,VALID,24.532,VALID,41,VALID,0,
2011-04-24, 00:52:05,VALID,1007.72,VALID,0,VALID,104,VALID,0,VALID,24.5125,VALID,41,VALID,0,
2011-04-24, 00:53:05,VALID,1007.7,VALID,0,VALID,104,VALID,0,VALID,24.4717,VALID,41,VALID,0,
2011-04-24, 00:54:05,VALID,1007.72,VALID,0,VALID,104,VALID,0,VALID,24.4735,VALID,41,VALID,0,
2011-04-24, 00:55:05,VALID,1007.71,VALID,0,VALID,104,VALID,0,VALID,24.454,VALID,41,VALID,0,
2011-04-24, 00:56:05,VALID,1007.7,VALID,0,VALID,104,VALID,0,VALID,24.4132,VALID,41,VALID,0,
2011-04-24, 00:57:05,VALID,1007.68,VALID,0,VALID,104,VALID,0,VALID,24.4132,VALID,41,VALID,0,
2011-04-24, 00:58:05,VALID,1007.69,VALID,0,VALID,104,VALID,0,VALID,24.4345,VALID,41,VALID,0,
2011-04-24, 00:59:05,VALID,1007.67,VALID,0,VALID,104,VALID,0,VALID,24.4327,VALID,41,VALID,0,
2011-04-24, 01:00:05,VALID,1007.66,VALID,0,VALID,104,VALID,0.105969,VALID,24.4522,VALID,41,VALID,0,
2011-04-24, 01:01:05,VALID,1007.61,VALID,0,VALID,104,VALID,0,VALID,24.4735,VALID,41,VALID,0,
2011-04-24, 01:02:05,VALID,1007.61,VALID,0,VALID,104,VALID,0,VALID,24.4717,VALID,41,VALID,0.182422,
2011-04-24, 01:03:05,VALID,1007.59,VALID,0,VALID,104,VALID,0,VALID,24.4717,VALID,41,VALID,0.0679687,
2011-04-24, 01:04:05,VALID,1007.55,VALID,0,VALID,104,VALID,0,VALID,24.493,VALID,41,VALID,0.235156,
2011-04-24, 01:05:05,VALID,1007.5,VALID,0,VALID,104,VALID,0,VALID,24.5125,VALID,41,VALID,0,
2011-04-24, 01:06:05,VALID,1007.47,VALID,0,VALID,104,VALID,0,VALID,24.5125,VALID,41,VALID,0,
2011-04-24, 01:07:05,VALID,1007.43,VALID,0,VALID,104,VALID,0,VALID,24.493,VALID,41,VALID,0,
2011-04-24, 01:08:05,VALID,1007.39,VALID,0,VALID,104,VALID,0,VALID,24.493,VALID,41,VALID,0,
2011-04-24, 01:09:05,VALID,1007.39,VALID,0,VALID,104,VALID,0,VALID,24.493,VALID,41,VALID,0,
2011-04-24, 01:10:05,VALID,1007.36,VALID,0,VALID,104,VALID,0,VALID,24.4735,VALID,41,VALID,0,
2011-04-24, 01:11:05,VALID,1007.35,VALID,0,VALID,104,VALID,0,VALID,24.4735,VALID,41,VALID,0,
2011-04-24, 01:12:05,VALID,1007.33,VALID,0,VALID,104,VALID,0,VALID,24.4735,VALID,41,VALID,0,
2011-04-24, 01:13:05,VALID,1007.36,VALID,0,VALID,104,VALID,0,VALID,24.454,VALID,41,VALID,0,
2011-04-24, 01:14:05,VALID,1007.35,VALID,0,VALID,104,VALID,0,VALID,24.4345,VALID,41,VALID,0,
2011-04-24, 01:15:05,VALID,1007.36,VALID,0,VALID,104,VALID,0,VALID,24.415,VALID,41,VALID,0,
2011-04-24, 01:16:05,VALID,1007.38,VALID,0,VALID,104,VALID,0,VALID,24.415,VALID,41,VALID,0,
2011-04-24, 01:17:05,VALID,1007.37,VALID,0,VALID,104,VALID,0,VALID,24.415,VALID,41,VALID,0,
2011-04-24, 01:18:05,VALID,1007.35,VALID,0,VALID,104,VALID,0,VALID,24.3761,VALID,41,VALID,0,
2011-04-24, 01:19:05,VALID,1007.34,VALID,0,VALID,104,VALID,0,VALID,24.3566,VALID,41,VALID,0,
2011-04-24, 01:20:05,VALID,1007.31,VALID,0,VALID,104,VALID,0,VALID,24.3761,VALID,41,VALID,0,
2011-04-24, 01:21:05,VALID,1007.31,VALID,0,VALID,104,VALID,0,VALID,24.3956,VALID,41,VALID,0,
2011-04-24, 01:22:05,VALID,1007.3,VALID,0,VALID,104,VALID,0,VALID,24.3937,VALID,41,VALID,0,
2011-04-24, 01:23:05,VALID,1007.29,VALID,0,VALID,104,VALID,0,VALID,24.415,VALID,41,VALID,0,
2011-04-24, 01:24:05,VALID,1007.25,VALID,0,VALID,104,VALID,0,VALID,24.415,VALID,41,VALID,0,
2011-04-24, 01:25:05,VALID,1007.22,VALID,0,VALID,104,VALID,0,VALID,24.3761,VALID,41,VALID,0,
2011-04-24, 01:26:05,VALID,1007.24,VALID,0,VALID,104,VALID,0,VALID,24.3761,VALID,41,VALID,0,
2011-04-24, 01:27:05,VALID,1007.21,VALID,0,VALID,104,VALID,0,VALID,24.3761,VALID,41,VALID,0,
2011-04-24, 01:28:05,VALID,1007.21,VALID,0,VALID,104,VALID,0,VALID,24.3566,VALID,41,VALID,0,
2011-04-24, 01:29:05,VALID,1007.2,VALID,0,VALID,104,VALID,0,VALID,24.3566,VALID,41,VALID,0,
2011-04-24, 01:30:05,VALID,1007.18,VALID,0,VALID,104,VALID,0,VALID,24.3761,VALID,41,VALID,0,
2011-04-24, 01:31:05,VALID,1007.19,VALID,0,VALID,104,VALID,0,VALID,24.3547,VALID,41,VALID,0,
2011-04-24, 01:32:05,VALID,1007.15,VALID,0,VALID,104,VALID,0,VALID,24.3566,VALID,41,VALID,0,
2011-04-24, 01:33:05,VALID,1007.13,VALID,0,VALID,104,VALID,0,VALID,24.3158,VALID,41,VALID,0,
2011-04-24, 01:34:05,VALID,1007.11,VALID,0,VALID,104,VALID,0,VALID,24.3158,VALID,41,VALID,0,
2011-04-24, 01:35:05,VALID,1007.09,VALID,0,VALID,104,VALID,0,VALID,24.3371,VALID,41,VALID,0,
2011-04-24, 01:36:05,VALID,1007.1,VALID,0,VALID,104,VALID,0,VALID,24.3176,VALID,41,VALID,0,
2011-04-24, 01:37:05,VALID,1007.07,VALID,0,VALID,104,VALID,0,VALID,24.3371,VALID,41,VALID,0,
2011-04-24, 01:38:05,VALID,1007.04,VALID,0,VALID,104,VALID,0,VALID,24.3371,VALID,41,VALID,0,
2011-04-24, 01:39:05,VALID,1007.04,VALID,0,VALID,104,VALID,0,VALID,24.3371,VALID,41,VALID,0,
2011-04-24, 01:40:05,VALID,1007.02,VALID,0,VALID,104,VALID,0,VALID,24.3176,VALID,41,VALID,0,
2011-04-24, 01:41:05,VALID,1007.03,VALID,0,VALID,104,VALID,0,VALID,24.3176,VALID,41,VALID,0,
2011-04-24, 01:42:05,VALID,1006.98,VALID,0,VALID,104,VALID,0,VALID,24.3176,VALID,41,VALID,0,
2011-04-24, 01:43:05,VALID,1006.98,VALID,0,VALID,104,VALID,0,VALID,24.3176,VALID,41,VALID,0,
2011-04-24, 01:44:05,VALID,1006.98,VALID,0,VALID,104,VALID,0,VALID,24.2981,VALID,41,VALID,0,
2011-04-24, 01:45:05,VALID,1006.96,VALID,0,VALID,104,VALID,0,VALID,24.2981,VALID,41,VALID,0,
2011-04-24, 01:46:05,VALID,1006.96,VALID,0,VALID,104,VALID,0,VALID,24.2981,VALID,41,VALID,0,
2011-04-24, 01:47:05,VALID,1006.97,VALID,0,VALID,104,VALID,0,VALID,24.3176,VALID,41,VALID,0,
2011-04-24, 01:48:05,VALID,1006.95,VALID,0,VALID,104,VALID,0,VALID,24.3176,VALID,41,VALID,0,
2011-04-24, 01:49:05,VALID,1006.96,VALID,0,VALID,104,VALID,0,VALID,24.3176,VALID,41,VALID,0,
2011-04-24, 01:50:05,VALID,1006.95,VALID,0,VALID,104,VALID,0,VALID,24.3176,VALID,41,VALID,0,
2011-04-24, 01:51:05,VALID,1006.96,VALID,0,VALID,104,VALID,0,VALID,24.3176,VALID,41,VALID,0,
2011-04-24, 01:52:05,VALID,1006.91,VALID,0,VALID,104,VALID,0,VALID,24.3176,VALID,41,VALID,0,
2011-04-24, 01:53:05,VALID,1006.92,VALID,0,VALID,104,VALID,0,VALID,24.2786,VALID,41,VALID,0,
2011-04-24, 01:54:05,VALID,1006.88,VALID,0,VALID,104,VALID,0,VALID,24.2396,VALID,41,VALID,0,
2011-04-24, 01:55:05,VALID,1006.83,VALID,0,VALID,104,VALID,0,VALID,24.2007,VALID,41,VALID,0,
2011-04-24, 01:56:05,VALID,1006.82,VALID,0,VALID,104,VALID,0,VALID,24.1812,VALID,41,VALID,0,
2011-04-24, 01:57:05,VALID,1006.75,VALID,0,VALID,104,VALID,0,VALID,24.1617,VALID,41,VALID,0,
2011-04-24, 01:58:05,VALID,1006.76,VALID,0,VALID,104,VALID,0,VALID,24.1812,VALID,41,VALID,0,
2011-04-24, 01:59:05,VALID,1006.69,VALID,0,VALID,104,VALID,0,VALID,24.1617,VALID,41,VALID,0,
2011-04-24, 02:00:05,VALID,1006.7,VALID,0,VALID,104,VALID,0,VALID,24.1617,VALID,41,VALID,0,
2011-04-24, 02:01:05,VALID,1006.71,VALID,0,VALID,104,VALID,0,VALID,24.1617,VALID,41,VALID,0,
2011-04-24, 02:02:05,VALID,1006.71,VALID,0,VALID,104,VALID,0,VALID,24.1617,VALID,41,VALID,0,
2011-04-24, 02:03:05,VALID,1006.73,VALID,0,VALID,104,VALID,0,VALID,24.1617,VALID,41,VALID,0,
2011-04-24, 02:04:05,VALID,1006.74,VALID,0,VALID,104,VALID,0,VALID,24.1617,VALID,41,VALID,0,
2011-04-24, 02:05:05,VALID,1006.72,VALID,0,VALID,104,VALID,0,VALID,24.1227,VALID,41,VALID,0,
2011-04-24, 02:06:05,VALID,1006.71,VALID,0,VALID,104,VALID,0,VALID,24.1227,VALID,41,VALID,0,
2011-04-24, 02:07:05,VALID,1006.69,VALID,0,VALID,104,VALID,0,VALID,24.0819,VALID,41,VALID,0,
2011-04-24, 02:08:05,VALID,1006.65,VALID,0,VALID,104,VALID,0,VALID,24.0643,VALID,41,VALID,0,
2011-04-24, 02:09:05,VALID,1006.62,VALID,0,VALID,104,VALID,0,VALID,24.0448,VALID,41,VALID,0,
2011-04-24, 02:10:05,VALID,1006.6,VALID,0,VALID,104,VALID,0,VALID,24.0448,VALID,41,VALID,0,
2011-04-24, 02:11:05,VALID,1006.63,VALID,0,VALID,104,VALID,0,VALID,24.0253,VALID,41,VALID,0,
2011-04-24, 02:12:05,VALID,1006.63,VALID,0,VALID,104,VALID,0,VALID,24.0643,VALID,41,VALID,0,
2011-04-24, 02:13:05,VALID,1006.64,VALID,0,VALID,104,VALID,0,VALID,24.0429,VALID,41,VALID,0,
2011-04-24, 02:14:05,VALID,1006.63,VALID,0,VALID,104,VALID,0,VALID,24.0624,VALID,41,VALID,0,
2011-04-24, 02:15:05,VALID,1006.64,VALID,0,VALID,104,VALID,0,VALID,24.1051,VALID,41,VALID,0,
2011-04-24, 02:16:05,VALID,1006.68,VALID,0,VALID,104,VALID,0,VALID,24.0837,VALID,41,VALID,0,
2011-04-24, 02:17:05,VALID,1006.69,VALID,0,VALID,104,VALID,0,VALID,24.1032,VALID,41,VALID,0,
2011-04-24, 02:18:05,VALID,1006.73,VALID,0,VALID,104,VALID,0,VALID,24.0643,VALID,41,VALID,0,
2011-04-24, 02:19:05,VALID,1006.77,VALID,0,VALID,104,VALID,0,VALID,24.0058,VALID,41,VALID,0,
2011-04-24, 02:20:05,VALID,1006.79,VALID,0,VALID,104,VALID,0,VALID,23.9473,VALID,41,VALID,0,
2011-04-24, 02:21:05,VALID,1006.79,VALID,0,VALID,104,VALID,0,VALID,23.9084,VALID,41,VALID,0,
2011-04-24, 02:22:05,VALID,1006.8,VALID,0,VALID,104,VALID,0,VALID,23.8889,VALID,41,VALID,0,
2011-04-24, 02:23:05,VALID,1006.84,VALID,0,VALID,104,VALID,0,VALID,23.8694,VALID,41,VALID,0,
2011-04-24, 02:24:05,VALID,1006.81,VALID,0,VALID,104,VALID,0,VALID,23.8694,VALID,41,VALID,0,
2011-04-24, 02:25:04,VALID,1006.83,VALID,0,VALID,104,VALID,0,VALID,23.8694,VALID,41,VALID,0,
2011-04-24, 02:26:04,VALID,1006.82,VALID,0,VALID,104,VALID,0,VALID,23.8694,VALID,41,VALID,0,
2011-04-24, 02:27:04,VALID,1006.84,VALID,0,VALID,104,VALID,0,VALID,23.8481,VALID,41,VALID,0,
2011-04-24, 02:28:04,VALID,1006.85,VALID,0,VALID,104,VALID,0,VALID,23.8712,VALID,41,VALID,0.283203,
2011-04-24, 02:29:04,VALID,1006.84,VALID,0,VALID,104,VALID,0,VALID,23.9084,VALID,41,VALID,0.447656,
2011-04-24, 02:30:04,VALID,1006.85,VALID,0,VALID,104,VALID,0,VALID,23.9278,VALID,41,VALID,0.328906,
2011-04-24, 02:31:04,VALID,1006.86,VALID,0,VALID,104,VALID,0,VALID,23.9278,VALID,41,VALID,0.200391,
2011-04-24, 02:32:04,VALID,1006.87,VALID,0,VALID,104,VALID,0,VALID,23.8889,VALID,41,VALID,0.135156,
2011-04-24, 02:33:04,VALID,1006.9,VALID,0,VALID,104,VALID,0,VALID,23.8694,VALID,41,VALID,0.201562,
2011-04-24, 02:34:04,VALID,1006.9,VALID,0,VALID,104,VALID,0,VALID,23.8694,VALID,41,VALID,0.228125,
2011-04-24, 02:35:04,VALID,1006.88,VALID,0,VALID,104,VALID,0,VALID,23.8481,VALID,41,VALID,0.296875,
2011-04-24, 02:36:04,VALID,1006.83,VALID,0,VALID,104,VALID,0,VALID,23.8694,VALID,41,VALID,0.429688,
2011-04-24, 02:37:04,VALID,1006.82,VALID,0,VALID,104,VALID,0,VALID,23.8499,VALID,41,VALID,0.404687,
2011-04-24, 02:38:04,VALID,1006.79,VALID,0,VALID,104,VALID,0,VALID,23.8694,VALID,41,VALID,0.401563,
2011-04-24, 02:39:04,VALID,1006.75,VALID,0,VALID,104,VALID,0,VALID,23.8499,VALID,41,VALID,0.363672,
2011-04-24, 02:40:04,VALID,1006.71,VALID,0,VALID,104,VALID,0,VALID,23.8304,VALID,41,VALID,0.429688,
2011-04-24, 02:41:04,VALID,1006.7,VALID,0,VALID,104,VALID,0,VALID,23.7896,VALID,41,VALID,0.179297,
2011-04-24, 02:42:04,VALID,1006.67,VALID,0,VALID,104,VALID,0,VALID,23.7896,VALID,41,VALID,0.225391,
2011-04-24, 02:43:04,VALID,1006.66,VALID,0,VALID,104,VALID,0.105969,VALID,23.7896,VALID,41,VALID,0.349609,
2011-04-24, 02:44:04,VALID,1006.63,VALID,0,VALID,104,VALID,0,VALID,23.772,VALID,41,VALID,0.250781,
2011-04-24, 02:45:04,VALID,1006.64,VALID,0,VALID,104,VALID,0,VALID,23.772,VALID,41,VALID,0.250391,
2011-04-24, 02:46:04,VALID,1006.62,VALID,0,VALID,104,VALID,0,VALID,23.7507,VALID,41,VALID,0.25,
2011-04-24, 02:47:04,VALID,1006.62,VALID,0,VALID,104,VALID,0,VALID,23.772,VALID,41,VALID,0.224609,
2011-04-24, 02:48:04,VALID,1006.63,VALID,0,VALID,104,VALID,0,VALID,23.7312,VALID,41,VALID,0.145703,
2011-04-24, 02:49:04,VALID,1006.69,VALID,0,VALID,104,VALID,0,VALID,23.7312,VALID,41,VALID,0.201562,
2011-04-24, 02:50:04,VALID,1006.68,VALID,0,VALID,104,VALID,0,VALID,23.7525,VALID,41,VALID,0.237109,
2011-04-24, 02:51:04,VALID,1006.69,VALID,0,VALID,104,VALID,0,VALID,23.7312,VALID,41,VALID,0.126172,
2011-04-24, 02:52:04,VALID,1006.71,VALID,0,VALID,104,VALID,0,VALID,23.7312,VALID,41,VALID,0,
2011-04-24, 02:53:04,VALID,1006.73,VALID,0,VALID,104,VALID,0,VALID,23.7117,VALID,41,VALID,0,
2011-04-24, 02:54:04,VALID,1006.71,VALID,0,VALID,104,VALID,0,VALID,23.733,VALID,41,VALID,0,
2011-04-24, 02:55:04,VALID,1006.7,VALID,0,VALID,104,VALID,0,VALID,23.733,VALID,41,VALID,0,
2011-04-24, 02:56:04,VALID,1006.68,VALID,0,VALID,104,VALID,0,VALID,23.733,VALID,41,VALID,0,
2011-04-24, 02:57:04,VALID,1006.68,VALID,0,VALID,104,VALID,0,VALID,23.733,VALID,41,VALID,0,
2011-04-24, 02:58:04,VALID,1006.63,VALID,0,VALID,104,VALID,0,VALID,23.7135,VALID,41,VALID,0,
2011-04-24, 02:59:04,VALID,1006.61,VALID,0,VALID,104,VALID,0,VALID,23.6532,VALID,41,VALID,0,
2011-04-24, 03:00:04,VALID,1006.62,VALID,0,VALID,104,VALID,0,VALID,23.655,VALID,41,VALID,0,
2011-04-24, 03:01:04,VALID,1006.61,VALID,0,VALID,104,VALID,0,VALID,23.655,VALID,41,VALID,0,
2011-04-24, 03:02:04,VALID,1006.56,VALID,0,VALID,104,VALID,0,VALID,23.6338,VALID,41,VALID,0,
2011-04-24, 03:03:04,VALID,1006.58,VALID,0,VALID,104,VALID,0,VALID,23.6356,VALID,41,VALID,0,
2011-04-24, 03:04:04,VALID,1006.6,VALID,0,VALID,104,VALID,0,VALID,23.5948,VALID,41,VALID,0,
2011-04-24, 03:05:04,VALID,1006.57,VALID,0,VALID,104,VALID,0,VALID,23.5966,VALID,41,VALID,0,
2011-04-24, 03:06:04,VALID,1006.6,VALID,0,VALID,104,VALID,0,VALID,23.5771,VALID,41,VALID,0,
2011-04-24, 03:07:04,VALID,1006.62,VALID,0,VALID,104,VALID,0,VALID,23.5771,VALID,41,VALID,0,
2011-04-24, 03:08:04,VALID,1006.67,VALID,0,VALID,104,VALID,0,VALID,23.5363,VALID,41,VALID,0,
2011-04-24, 03:09:04,VALID,1006.67,VALID,0,VALID,104,VALID,0,VALID,23.5576,VALID,41,VALID,0,
2011-04-24, 03:10:04,VALID,1006.69,VALID,0,VALID,104,VALID,0,VALID,23.5558,VALID,41,VALID,0,
2011-04-24, 03:11:04,VALID,1006.71,VALID,0,VALID,104,VALID,0,VALID,23.5576,VALID,41,VALID,0,
2011-04-24, 03:12:04,VALID,1006.73,VALID,0,VALID,104,VALID,0,VALID,23.5169,VALID,41,VALID,0.282422,
2011-04-24, 03:13:04,VALID,1006.74,VALID,0,VALID,104,VALID,0,VALID,23.5381,VALID,41,VALID,0.604688,
2011-04-24, 03:14:04,VALID,1006.75,VALID,0,VALID,104,VALID,0,VALID,23.5381,VALID,41,VALID,0.508984,
2011-04-24, 03:15:04,VALID,1006.75,VALID,0,VALID,104,VALID,0,VALID,23.5576,VALID,41,VALID,0.35,
2011-04-24, 03:16:04,VALID,1006.74,VALID,0,VALID,104,VALID,0,VALID,23.5381,VALID,41,VALID,0.185547,
2011-04-24, 03:17:04,VALID,1006.75,VALID,0,VALID,104,VALID,0,VALID,23.5186,VALID,41,VALID,0.0632813,
2011-04-24, 03:18:04,VALID,1006.77,VALID,0,VALID,104,VALID,0,VALID,23.4992,VALID,41,VALID,0,
2011-04-24, 03:19:04,VALID,1006.8,VALID,0,VALID,104,VALID,0,VALID,23.4992,VALID,41,VALID,0,
2011-04-24, 03:20:04,VALID,1006.82,VALID,0,VALID,104,VALID,0,VALID,23.4797,VALID,41,VALID,0,
2011-04-24, 03:21:04,VALID,1006.83,VALID,0,VALID,104,VALID,0,VALID,23.4992,VALID,41,VALID,0,
2011-04-24, 03:22:04,VALID,1006.85,VALID,0,VALID,104,VALID,0,VALID,23.4974,VALID,41,VALID,0,
2011-04-24, 03:23:04,VALID,1006.86,VALID,0,VALID,104,VALID,0,VALID,23.5186,VALID,41,VALID,0,
2011-04-24, 03:24:04,VALID,1006.94,VALID,0,VALID,104,VALID,0,VALID,23.5381,VALID,41,VALID,0,
2011-04-24, 03:25:04,VALID,1006.96,VALID,0,VALID,104,VALID,0,VALID,23.5381,VALID,41,VALID,0,
2011-04-24, 03:26:04,VALID,1006.98,VALID,0,VALID,104,VALID,0,VALID,23.4974,VALID,41,VALID,0,
2011-04-24, 03:27:04,VALID,1006.99,VALID,0,VALID,104,VALID,0,VALID,23.4992,VALID,41,VALID,0,
2011-04-24, 03:28:04,VALID,1007.01,VALID,0,VALID,104,VALID,0,VALID,23.4992,VALID,41,VALID,0,
2011-04-24, 03:29:04,VALID,1007.02,VALID,0,VALID,104,VALID,0,VALID,23.5186,VALID,41,VALID,0,
2011-04-24, 03:30:04,VALID,1007.02,VALID,0,VALID,104,VALID,0,VALID,23.5186,VALID,41,VALID,0,
2011-04-24, 03:31:04,VALID,1007.01,VALID,0,VALID,104,VALID,0,VALID,23.5186,VALID,41,VALID,0,
2011-04-24, 03:32:04,VALID,1007.02,VALID,0,VALID,104,VALID,0,VALID,23.5186,VALID,41,VALID,0,
2011-04-24, 03:33:04,VALID,1007.04,VALID,0,VALID,104,VALID,0.105969,VALID,23.4974,VALID,41,VALID,0,
2011-04-24, 03:34:04,VALID,1007.06,VALID,0,VALID,104,VALID,0,VALID,23.4797,VALID,41,VALID,0,
2011-04-24, 03:35:04,VALID,1007.05,VALID,0,VALID,104,VALID,0,VALID,23.4797,VALID,41,VALID,0,
2011-04-24, 03:36:04,VALID,1007.05,VALID,0,VALID,104,VALID,0.105969,VALID,23.4584,VALID,41,VALID,0,
2011-04-24, 03:37:04,VALID,1007.08,VALID,0,VALID,104,VALID,0,VALID,23.4602,VALID,41,VALID,0,
2011-04-24, 03:38:04,VALID,1007.11,VALID,0,VALID,104,VALID,0,VALID,23.4797,VALID,41,VALID,0,
2011-04-24, 03:39:04,VALID,1007.12,VALID,0,VALID,104,VALID,0,VALID,23.4797,VALID,41,VALID,0,
2011-04-24, 03:40:04,VALID,1007.13,VALID,0,VALID,104,VALID,0,VALID,23.4992,VALID,41,VALID,0,
2011-04-24, 03:41:04,VALID,1007.16,VALID,0,VALID,104,VALID,0,VALID,23.4992,VALID,41,VALID,0,
2011-04-24, 03:42:04,VALID,1007.17,VALID,0,VALID,104,VALID,0,VALID,23.5186,VALID,41,VALID,0,
2011-04-24, 03:43:04,VALID,1007.2,VALID,0,VALID,104,VALID,0,VALID,23.5186,VALID,41,VALID,0,
2011-04-24, 03:44:04,VALID,1007.21,VALID,0,VALID,104,VALID,0,VALID,23.4992,VALID,41,VALID,0,
2011-04-24, 03:45:04,VALID,1007.23,VALID,0,VALID,104,VALID,0,VALID,23.4992,VALID,41,VALID,0,
2011-04-24, 03:46:04,VALID,1007.25,VALID,0,VALID,104,VALID,0,VALID,23.4584,VALID,41,VALID,0,
2011-04-24, 03:47:04,VALID,1007.25,VALID,0,VALID,104,VALID,0,VALID,23.4992,VALID,41,VALID,0,
2011-04-24, 03:48:04,VALID,1007.24,VALID,0,VALID,104,VALID,0,VALID,23.4797,VALID,41,VALID,0,
2011-04-24, 03:49:04,VALID,1007.27,VALID,0,VALID,104,VALID,0,VALID,23.4797,VALID,41,VALID,0,
2011-04-24, 03:50:04,VALID,1007.24,VALID,0,VALID,104,VALID,0,VALID,23.4797,VALID,41,VALID,0,
2011-04-24, 03:51:04,VALID,1007.21,VALID,0,VALID,104,VALID,0,VALID,23.4992,VALID,41,VALID,0,
2011-04-24, 03:52:04,VALID,1007.21,VALID,0,VALID,104,VALID,0,VALID,23.4992,VALID,41,VALID,0,
2011-04-24, 03:53:04,VALID,1007.17,VALID,0,VALID,104,VALID,0,VALID,23.5186,VALID,41,VALID,0,
2011-04-24, 03:54:04,VALID,1007.14,VALID,0,VALID,104,VALID,0,VALID,23.4974,VALID,41,VALID,0,
2011-04-24, 03:55:04,VALID,1007.17,VALID,0,VALID,104,VALID,0,VALID,23.4992,VALID,41,VALID,0,
2011-04-24, 03:56:04,VALID,1007.19,VALID,0,VALID,104,VALID,0,VALID,23.4974,VALID,41,VALID,0,
2011-04-24, 03:57:04,VALID,1007.15,VALID,0,VALID,104,VALID,0,VALID,23.4974,VALID,41,VALID,0,
2011-04-24, 03:58:04,VALID,1007.19,VALID,0,VALID,104,VALID,0,VALID,23.4974,VALID,41,VALID,0,
2011-04-24, 03:59:04,VALID,1007.17,VALID,0,VALID,104,VALID,0,VALID,23.4779,VALID,41,VALID,0,
2011-04-24, 04:00:04,VALID,1007.17,VALID,0,VALID,104,VALID,0,VALID,23.4779,VALID,41,VALID,0,
2011-04-24, 04:01:04,VALID,1007.15,VALID,0,VALID,104,VALID,0,VALID,23.4584,VALID,41,VALID,0,
2011-04-24, 04:02:04,VALID,1007.16,VALID,0,VALID,104,VALID,0,VALID,23.4797,VALID,41,VALID,0,
2011-04-24, 04:03:04,VALID,1007.14,VALID,0,VALID,104,VALID,0,VALID,23.4584,VALID,41,VALID,0,
2011-04-24, 04:04:04,VALID,1007.12,VALID,0,VALID,104,VALID,0,VALID,23.4797,VALID,41,VALID,0,
2011-04-24, 04:05:04,VALID,1007.14,VALID,0,VALID,104,VALID,0,VALID,23.4797,VALID,41,VALID,0,
2011-04-24, 04:06:04,VALID,1007.12,VALID,0,VALID,104,VALID,0,VALID,23.4602,VALID,41,VALID,0,
2011-04-24, 04:07:04,VALID,1007.1,VALID,0,VALID,104,VALID,0,VALID,23.4407,VALID,41,VALID,0,